PORT of KOPER

Maa: Slovenia Maa: Slovenia (SI)
Pituusaste/Leveysaste: 45.56217° / 13.736355° Näytä kartalla Näytä kartalla
Paikallista aikaa:  UTC +2
UN/LOCODE: SIKOP
Aluksia satamassa nyt: 15
Odotetut saapumiset: 15

Viimeisimmät saapumiset ja lähdöt


Aluksen nimi
Saapuminen (UTC)
Saapuminen (LT)
Lähtö (UTC)
Lähtö (LT)
Vessel Type: Tankkerit  HELLAS PROGRESS 2014-09-21 22:42:00 2014-09-22 00:42:00
Vessel Type: Matkustaja-alus  THOMSON MAJESTY 2014-09-21 06:04:00 2014-09-21 08:04:00 2014-09-21 21:05:00 2014-09-21 23:05:00
Vessel Type: Matkustaja-alus  SEVEN SEAS MARINER 2014-09-21 08:56:00 2014-09-21 10:56:00 2014-09-21 17:17:00 2014-09-21 19:17:00
Vessel Type: Matkustaja-alus  SILVER WIND 2014-09-21 05:13:00 2014-09-21 07:13:00 2014-09-21 14:56:00 2014-09-21 16:56:00
Vessel Type: Hinaaja, Luotsi, jne.  PI-1 2014-09-21 00:03:00 2014-09-21 02:03:00 2014-09-21 13:29:00 2014-09-21 15:29:00
Vessel Type: Jahdit ja muut  SHAULA 2014-09-12 12:56:00 2014-09-12 14:56:00 2014-09-21 13:17:00 2014-09-21 15:17:00
Vessel Type: Hinaaja, Luotsi, jne.  KP-10 2014-09-21 00:02:00 2014-09-21 02:02:00
Vessel Type: Rahtilaivat  NEPTUNE THELISIS 2014-09-20 03:29:00 2014-09-20 05:29:00 2014-09-20 22:48:00 2014-09-21 00:48:00
Vessel Type: Hinaaja, Luotsi, jne.  KP-10 2014-09-20 12:41:00 2014-09-20 14:41:00 2014-09-20 22:04:00 2014-09-21 00:04:00
Vessel Type: Hinaaja, Luotsi, jne.  NEPTUN 2014-09-20 19:52:00 2014-09-20 21:52:00

Odotetut saapumiset


Aluksen nimi
Scheduled Arrival (UTC)
Aikataulun mukainen saapuminen (paikallinen)
Arvioitu saapuminen (UTC)
Arvioitu saapuminen (paikallinen aika)
Vessel Type: Rahtilaivat  TRANSPORTER 2014-09-21 19:00:00 2014-09-21 21:00:00 2014-09-21 17:37:00 2014-09-21 19:37:00
Vessel Type: Rahtilaivat  HHL VENICE 2014-09-22 00:00:00 2014-09-22 02:00:00 2014-09-21 23:22:00 2014-09-22 01:22:00
Vessel Type: Rahtilaivat  CARAT 2014-09-22 04:00:00 2014-09-22 06:00:00 2014-09-22 03:31:00 2014-09-22 05:31:00
Vessel Type: Rahtilaivat  X PRESS MULHACEN 2014-09-22 06:30:00 2014-09-22 08:30:00 2014-09-22 04:39:00 2014-09-22 06:39:00
Vessel Type: Rahtilaivat  ATLAS 2014-09-23 04:00:00 2014-09-23 06:00:00 2014-09-23 03:05:00 2014-09-23 05:05:00
Vessel Type: Rahtilaivat  LIBERTAS H 2014-09-23 18:00:00 2014-09-23 20:00:00 2014-09-23 17:35:00 2014-09-23 19:35:00
Vessel Type: Rahtilaivat  TRADER 2014-09-23 20:00:00 2014-09-23 22:00:00 2014-09-24 01:46:00 2014-09-24 03:46:00
Vessel Type: Rahtilaivat  SEA PATRIS 2014-09-24 08:00:00 2014-09-24 10:00:00 2014-09-24 11:37:00 2014-09-24 13:37:00
Vessel Type: Rahtilaivat  NEPTUNE ILIAD 2014-09-25 03:00:00 2014-09-25 05:00:00 2014-09-25 17:58:00 2014-09-25 19:58:00
Vessel Type: Rahtilaivat  SIDER JOY 2014-09-26 05:00:00 2014-09-26 07:00:00 2014-09-25 20:17:00 2014-09-25 22:17:00

Wind Forecast


    
Aika (UTC)
Nopeus
Suunta
Temperature
2014-09-22 00:00:00 6 knots 129° 20°C
2014-09-22 03:00:00 5 knots 139° 19°C
2014-09-22 06:00:00 2 knots 313° 19°C
2014-09-22 09:00:00 8 knots 36° 19°C
2014-09-22 12:00:00 10 knots 52° 20°C
2014-09-22 15:00:00 5 knots 331° 20°C
2014-09-22 18:00:00 3 knots 67° 20°C
2014-09-22 21:00:00 14 knots 17° 18°C
2014-09-23 00:00:00 12 knots 46° 16°C
2014-09-23 03:00:00 10 knots 92° 14°C
2014-09-23 06:00:00 3 knots 103° 15°C
2014-09-23 09:00:00 4 knots 327° 15°C
2014-09-23 12:00:00 3 knots 276° 16°C
2014-09-23 15:00:00 3 knots 336° 17°C
2014-09-23 18:00:00 3 knots 55° 18°C
2014-09-23 21:00:00 13 knots 96° 15°C
2014-09-24 00:00:00 12 knots 105° 14°C